Вернуться в каталог

YAOGAN-32 A

АктивенВоенныеSSO
NORAD 43642·PAYLOAD·🇨🇳 China

Запущен Oct 9, 2018 с Jiuquan Satellite Launch Center

Loading…

Ближайшие Пролёты (ближайшие 24 часа)

TLE

СвежийSource: Space-Track

Эпоха: Sep 14, 2026, 15:17 UTC

1 43642U 18077A   26257.63683249  .00000180  00000-0  43955-4 0  9994
2 43642  98.1432 285.0920 0000999  91.0913 269.0403 14.63263858422923

Отслеживайте YAOGAN-32 A в реальном времени с AllMySat

Download on the App Store